Location: Montamat
(43.4852°N, 0.8444°E)
Time: 21:10:37
(UTC+00:00)

Cosmos 2142 Rocket - Pass Details

Date: 14 May 2026
Orbit: 951 x 1005 km, 83.0° (Epoch: 8 June)

Event Time Altitude Azimuth Distance (km) Brightness Sun altitude
Exits shadow 23:05:17 62° 127° (SE) 1,094 4.5 -26.7°
Maximum altitude 23:05:55 67° 93° (E) 1,062 4.5 -26.8°
Drops below altitude 10° 23:12:05 10° 13° (NNE) 2,722 7.7 -27.0°
Sets 23:14:36 0° 11° (N) 3,666 8.6 -27.1°
